Discarica di Monteschiantello Fano (PU) (lat. 43.789272 - lon. 13.063131) Ora solare
Ultimo aggiornamento: 23/10/2019 17:47:10

Temperatura (°C) - Valori minimi, medi e massimi delle ultime 72 ore


Precipitazione totale (mm) - Valori delle ultime 72 ore


Velocità del vento (m/s) - Valori minimi, medi e massimi delle ultime 72 ore


Ultimi valori disponibili

GrandezzaUltimo valore rilevatoTrendData rilevamento
Temperatura med. (°C)17,56 23/10/2019 16:00:00
Temperatura min. (°C)17,10 23/10/2019 16:00:00
Temperatura max. (°C)18,60 23/10/2019 16:00:00
Umidità relativa med. (%)89,88 23/10/2019 16:00:00
Umidità relativa min. (%)85,37 23/10/2019 16:00:00
Umidità relativa max. (%)92,04 23/10/2019 16:00:00
Pressione atmosferica med. (hPa)1006,39 23/10/2019 16:00:00
Radiazione netta med. (W/m^2)562,50 23/10/2019 16:00:00
Radiazione netta min. (W/m^2)167,29 23/10/2019 16:00:00
Radiazione netta max. (W/m^2)657,12 23/10/2019 16:00:00
Velocità vento med. (m/s)3,87 23/10/2019 16:00:00
Velocità vento min. (m/s)1,67 23/10/2019 16:00:00
Velocità vento max. (m/s)5,88 23/10/2019 16:00:00
Direzione vento (gradi)114,96 23/10/2019 16:00:00
Precipitazione totale (mm)0,00 23/10/2019 16:00:00
Contenuto idrico terreno Med. (%)6,98 23/10/2019 16:00:00
Contenuto idrico terreno Min. (%)6,15 23/10/2019 16:00:00
Contenuto idrico terreno Max. (%)7,70 23/10/2019 16:00:00
Radiazione globale med. (W/m^2)199,90 23/10/2019 16:00:00
Radiazione globale min. (W/m^2)142,56 23/10/2019 16:00:00
Radiazione globale max. (W/m^2)270,05 23/10/2019 16:00:00
Temperatura suolo med. (°C)19,48 23/10/2019 16:00:00
Temperatura suolo min. (°C)19,02 23/10/2019 16:00:00
Temperatura suolo max. (°C)20,11 23/10/2019 16:00:00

Caricamento in corso...

..

...